TimeEST,TemperatureF,Dew PointF,Humidity,Sea Level PressureIn,VisibilityMPH,Wind Direction,Wind SpeedMPH,Gust SpeedMPH,PrecipitationIn,Events,Conditions,WindDirDegrees,DateUTC
12:15 AM,28.4,19.4,69,30.22,10.0,South,10.4,-,N/A,,Clear,190,2013-01-08 05:15:00
12:35 AM,30.2,17.6,60,30.21,10.0,South,11.5,-,N/A,,Clear,190,2013-01-08 05:35:00
12:55 AM,30.2,17.6,60,30.21,10.0,SSW,9.2,-,N/A,,Clear,200,2013-01-08 05:55:00
1:15 AM,32.0,14.0,48,30.19,10.0,SSW,10.4,-,N/A,,Clear,200,2013-01-08 06:15:00
1:40 AM,32.0,12.2,44,30.20,10.0,SSW,12.7,-,N/A,,Clear,210,2013-01-08 06:40:00
2:00 AM,32.0,12.2,44,30.21,10.0,SSW,12.7,-,N/A,,Clear,210,2013-01-08 07:00:00
2:20 AM,32.0,12.2,44,30.22,10.0,SSW,15.0,-,N/A,,Clear,210,2013-01-08 07:20:00
2:40 AM,32.0,14.0,48,30.22,10.0,SSW,12.7,-,N/A,,Clear,210,2013-01-08 07:40:00
3:05 AM,32.0,14.0,48,30.22,10.0,SW,12.7,-,N/A,,Clear,220,2013-01-08 08:05:00
3:25 AM,32.0,14.0,48,30.22,10.0,SW,10.4,-,N/A,,Clear,220,2013-01-08 08:25:00
3:45 AM,32.0,15.8,51,30.22,10.0,SW,9.2,-,N/A,,Clear,220,2013-01-08 08:45:00
4:05 AM,32.0,15.8,51,30.21,10.0,SW,9.2,-,N/A,,Clear,220,2013-01-08 09:05:00
4:30 AM,32.0,15.8,51,30.21,10.0,SW,8.1,-,N/A,,Clear,230,2013-01-08 09:30:00
4:50 AM,32.0,15.8,51,30.21,10.0,SW,8.1,-,N/A,,Clear,230,2013-01-08 09:50:00
5:10 AM,32.0,15.8,51,30.21,10.0,WSW,9.2,-,N/A,,Clear,240,2013-01-08 10:10:00
5:35 AM,35.6,15.8,44,30.23,10.0,WSW,11.5,16.1,N/A,,Clear,250,2013-01-08 10:35:00
5:55 AM,35.6,15.8,44,30.24,10.0,WSW,10.4,19.6,N/A,,Clear,250,2013-01-08 10:55:00
6:15 AM,35.6,15.8,44,30.25,10.0,WSW,11.5,-,N/A,,Clear,250,2013-01-08 11:15:00
6:35 AM,35.6,14.0,41,30.25,10.0,WSW,9.2,16.1,N/A,,Clear,250,2013-01-08 11:35:00
7:00 AM,33.8,14.0,44,30.26,10.0,WSW,10.4,17.3,N/A,,Clear,250,2013-01-08 12:00:00
8:00 AM,33.8,17.6,52,30.27,10.0,WSW,12.7,20.7,N/A,,Clear,250,2013-01-08 13:00:00
8:25 AM,33.8,19.4,56,30.28,10.0,WSW,11.5,20.7,N/A,,Clear,250,2013-01-08 13:25:00
9:05 AM,33.8,21.2,60,30.28,10.0,WSW,9.2,16.1,N/A,,Clear,250,2013-01-08 14:05:00
9:25 AM,33.8,21.2,60,30.29,10.0,WSW,11.5,19.6,N/A,,Clear,240,2013-01-08 14:25:00
9:50 AM,35.6,21.2,56,30.29,10.0,WSW,9.2,20.7,N/A,,Clear,240,2013-01-08 14:50:00
10:10 AM,35.6,21.2,56,30.31,10.0,SW,10.4,-,N/A,,Clear,230,2013-01-08 15:10:00
10:30 AM,37.4,21.2,52,30.30,10.0,WSW,9.2,17.3,N/A,,Clear,240,2013-01-08 15:30:00
10:50 AM,37.4,23.0,56,30.29,10.0,SW,13.8,18.4,N/A,,Clear,230,2013-01-08 15:50:00
11:15 AM,37.4,24.8,60,30.29,10.0,WSW,8.1,19.6,N/A,,Clear,250,2013-01-08 16:15:00
11:55 AM,37.4,24.8,60,30.28,10.0,West,10.4,18.4,N/A,,Clear,260,2013-01-08 16:55:00
12:15 PM,37.4,26.6,65,30.28,10.0,WSW,9.2,18.4,N/A,,Clear,240,2013-01-08 17:15:00
12:40 PM,39.2,26.6,61,30.27,10.0,WSW,9.2,16.1,N/A,,Clear,240,2013-01-08 17:40:00
1:00 PM,41.0,26.6,57,30.28,10.0,WSW,9.2,19.6,N/A,,Clear,240,2013-01-08 18:00:00
1:20 PM,41.0,26.6,57,30.28,10.0,WSW,12.7,17.3,N/A,,Clear,240,2013-01-08 18:20:00
1:40 PM,39.2,26.6,61,30.27,10.0,West,11.5,16.1,N/A,,Clear,260,2013-01-08 18:40:00
2:05 PM,39.2,26.6,61,30.27,10.0,West,12.7,17.3,N/A,,Clear,260,2013-01-08 19:05:00
2:45 PM,41.0,26.6,57,30.27,10.0,WSW,11.5,-,N/A,,Clear,250,2013-01-08 19:45:00
3:05 PM,41.0,26.6,57,30.28,10.0,West,8.1,-,N/A,,Clear,260,2013-01-08 20:05:00
3:30 PM,41.0,26.6,57,30.29,10.0,WSW,8.1,-,N/A,,Clear,250,2013-01-08 20:30:00
3:50 PM,41.0,24.8,53,30.29,10.0,WSW,6.9,-,N/A,,Clear,250,2013-01-08 20:50:00
4:10 PM,39.2,26.6,61,30.29,10.0,West,3.5,-,N/A,,Clear,270,2013-01-08 21:10:00
4:30 PM,39.2,26.6,61,30.30,10.0,WSW,3.5,-,N/A,,Clear,250,2013-01-08 21:30:00
4:55 PM,37.4,26.6,65,30.31,10.0,West,3.5,-,N/A,,Clear,260,2013-01-08 21:55:00
5:15 PM,35.6,26.6,70,30.31,10.0,West,3.5,-,N/A,,Clear,260,2013-01-08 22:15:00
5:35 PM,35.6,26.6,70,30.30,10.0,Calm,Calm,-,N/A,,Clear,0,2013-01-08 22:35:00
5:55 PM,35.6,26.6,70,30.30,10.0,Calm,Calm,-,N/A,,Clear,0,2013-01-08 22:55:00
6:20 PM,35.6,26.6,70,30.30,10.0,South,3.5,-,N/A,,Clear,170,2013-01-08 23:20:00
6:40 PM,35.6,26.6,70,30.29,10.0,SE,4.6,-,N/A,,Clear,140,2013-01-08 23:40:00
7:00 PM,35.6,26.6,70,30.29,10.0,SSE,3.5,-,N/A,,Clear,160,2013-01-09 00:00:00
7:20 PM,35.6,26.6,70,30.29,10.0,SSE,5.8,-,N/A,,Clear,160,2013-01-09 00:20:00
8:25 PM,33.8,24.8,70,30.30,10.0,SSE,6.9,-,N/A,,Clear,160,2013-01-09 01:25:00
8:45 PM,33.8,24.8,70,30.30,10.0,SSE,5.8,-,N/A,,Clear,160,2013-01-09 01:45:00
9:10 PM,33.8,24.8,70,30.30,10.0,SSE,8.1,-,N/A,,Clear,150,2013-01-09 02:10:00
9:50 PM,33.8,23.0,65,30.29,10.0,SSE,10.4,-,N/A,,Clear,150,2013-01-09 02:50:00
10:10 PM,33.8,24.8,70,30.29,10.0,SSE,10.4,-,N/A,,Clear,150,2013-01-09 03:10:00
10:35 PM,33.8,24.8,70,30.29,10.0,SSE,11.5,-,N/A,,Clear,150,2013-01-09 03:35:00
10:55 PM,33.8,24.8,70,30.28,10.0,SSE,9.2,-,N/A,,Clear,150,2013-01-09 03:55:00
11:15 PM,33.8,24.8,70,30.29,10.0,SSE,8.1,-,N/A,,Clear,160,2013-01-09 04:15:00